Meteo Giornale » Osservazioni meteo Francia » Villacoublay

ore: 04:00 - Osservazioni Meteo Villacoublay
Lat. 48° 46' N Lon. 2° 12' E Alt. 177 metri s.l.m.

sereno Europe/Paris

12 °C

Sereno

Temp. 24 Ore

12 °C

21 °C

Est/Nord-Est

7.4 Km/h

Dew point 11 °C

Umidità 93 %

Visibilità  8 Km

Il sole sorge alle ore 07:40

Il sole tramonta alle ore 19:44

Data e Ora Cielo e Fenomeni T °C DP °C Um. % Pres. hPa Vis. km Vento km/h
Oggi h: 04:00 sereno Sereno 12 11 93 1017 8 E/NE 7.4
Oggi h: 03:30 sereno Sereno 12 11 93 1017 7 N 5.5
Oggi h: 03:00 sereno Sereno 13 12 93 1017 8 N 5.5
Oggi h: 02:00 sereno Sereno 13 12 93 1017 10 N 5.5
Oggi h: 01:30 sereno Sereno 13 12 93 1017 10 N 5.5
Oggi h: 01:00 sereno Sereno 13 12 93 1017 10 NE 9.3
Oggi h: 00:30 sereno Sereno 14 12 87 1017 10 NE 9.3
Oggi h: 00:00 sereno Sereno 14 12 87 1018 10 NE 7.4
Ieri h: 23:30 sereno Sereno 14 12 87 1018 10 NE 7.4
Ieri h: 23:00 sereno Sereno 14 12 87 1018 10 N 5.5
Ieri h: 22:30 sereno Sereno 15 12 82 1018 10 N 5.5
Ieri h: 22:00 sereno Sereno 15 13 87 1018 10 N 5.5
Ieri h: 21:30 sereno Sereno 15 12 82 1018 10 N 5.5
Ieri h: 21:00 sereno Sereno 16 13 82 1018 10 N 3.7
Ieri h: 20:30 sereno Sereno 17 12 72 1017 10 N 3.7
Ieri h: 20:00 sereno Sereno 18 12 67 1017 10 N 3.7
Ieri h: 19:30 sereno Sereno 20 13 64 1017 10 N 3.7
Ieri h: 19:00 sereno Sereno 20 12 59 1017 10 N 5.5
Ieri h: 18:30 sereno Sereno 21 13 60 1017 10 O/SO 7.4
Ieri h: 18:00 sereno Sereno 21 12 56 1017 10 SO 7.4
Ieri h: 17:30 sereno Sereno 21 13 60 1017 10 O 9.3
Ieri h: 16:30 sereno Sereno 21 12 56 1018 10 SO 9.3
Ieri h: 16:00 sereno Sereno 20 12 59 1018 10 SO 9.3
Ieri h: 14:30 poco_nuvoloso Poco Nuvoloso 20 13 64 1019 10 O/SO 7.4
Ieri h: 14:00 molto_nuvoloso Molto Nuvoloso 19 13 68 1019 10 O/SO 9.3
Ieri h: 13:30 coperto Coperto 18 13 72 1019 10 N 5.5
Ieri h: 13:00 molto_nuvoloso Molto Nuvoloso 18 13 72 1020 10 N 5.5
Ieri h: 12:30 molto_nuvoloso Molto Nuvoloso 18 13 72 1020 10 N 3.7
Ieri h: 12:00 molto_nuvoloso Molto Nuvoloso 17 13 77 1020 10 N 3.7
Ieri h: 11:30 coperto Coperto 17 13 77 1020 10 O/SO 7.4
Ieri h: 11:00 molto_nuvoloso Molto Nuvoloso 16 13 82 1020 10 S/SO 7.4
Ieri h: 10:30 coperto Coperto 15 14 93 1020 10 N 5.5
Ieri h: 09:30 molto_nuvoloso Molto Nuvoloso 14 13 93 1020 10 N 1.8
Ieri h: 09:00 molto_nuvoloso Molto Nuvoloso 14 13 93 1020 7 N 1.8
Ieri h: 08:30 foschia Foschia 13 13 100 1020 2 N 1.8
Ieri h: 07:30 foschia Foschia 13 13 100 1020 5 N 5.5
Ieri h: 07:00 foschia Foschia 13 13 100 1020 4 N 3.7
Ieri h: 06:30 foschia Foschia 13 13 100 1020 5 N 5.5
Ieri h: 06:00 foschia Foschia 13 13 100 1020 5 N 3.7
Ieri h: 05:30 foschia Foschia 13 13 100 1020 3 N 3.7
Ieri h: 05:00 foschia Foschia 13 13 100 1020 3 N 5.5